TimeCST,TemperatureF,Dew PointF,Humidity,Sea Level PressureIn,VisibilityMPH,Wind Direction,Wind SpeedMPH,Gust SpeedMPH,PrecipitationIn,Events,Conditions,WindDirDegrees,DateUTC
12:15 AM,30.2,30.2,100,30.30,2.5,North,9.2,-,N/A,,Overcast,10,2014-02-11 06:15:00
12:35 AM,30.2,30.2,100,30.31,2.5,North,11.5,-,N/A,,Overcast,360,2014-02-11 06:35:00
12:55 AM,30.2,30.2,100,30.31,2.5,North,13.8,-,N/A,,Overcast,360,2014-02-11 06:55:00
1:15 AM,30.2,30.2,100,30.31,2.5,North,12.7,-,N/A,,Overcast,10,2014-02-11 07:15:00
1:35 AM,30.2,30.2,100,30.31,2.5,North,11.5,-,N/A,,Overcast,10,2014-02-11 07:35:00
1:55 AM,30.2,30.2,100,30.30,2.5,North,9.2,-,N/A,,Overcast,10,2014-02-11 07:55:00
2:15 AM,30.2,30.2,100,30.30,2.5,North,11.5,16.1,N/A,,Overcast,10,2014-02-11 08:15:00
2:35 AM,30.2,30.2,100,30.29,3.0,North,11.5,16.1,N/A,,Overcast,10,2014-02-11 08:35:00
2:55 AM,30.2,30.2,100,30.30,3.0,North,6.9,-,N/A,,Overcast,360,2014-02-11 08:55:00
3:15 AM,30.2,30.2,100,30.31,3.0,North,5.8,-,N/A,,Overcast,360,2014-02-11 09:15:00
3:35 AM,30.2,30.2,100,30.31,3.0,North,8.1,-,N/A,,Overcast,360,2014-02-11 09:35:00
3:55 AM,30.2,28.4,93,30.31,4.0,North,8.1,-,N/A,,Overcast,360,2014-02-11 09:55:00
4:15 AM,30.2,28.4,93,30.31,5.0,North,11.5,-,N/A,,Mostly Cloudy,360,2014-02-11 10:15:00
4:35 AM,30.2,28.4,93,30.30,7.0,North,16.1,19.6,N/A,,Mostly Cloudy,10,2014-02-11 10:35:00
4:55 AM,30.2,28.4,93,30.29,5.0,North,11.5,-,N/A,,Overcast,360,2014-02-11 10:55:00
5:15 AM,30.2,26.6,86,30.29,7.0,North,16.1,23.0,N/A,,Overcast,10,2014-02-11 11:15:00
5:35 AM,30.2,26.6,86,30.30,7.0,North,16.1,19.6,N/A,,Overcast,10,2014-02-11 11:35:00
5:55 AM,30.2,26.6,86,30.30,7.0,NNE,13.8,-,N/A,,Overcast,20,2014-02-11 11:55:00
7:50 AM,28.4,24.8,86,30.34,7.0,North,11.5,-,N/A,,Overcast,360,2014-02-11 13:50:00
8:50 AM,28.4,24.8,86,30.36,10.0,North,16.1,20.7,N/A,,Scattered Clouds,350,2014-02-11 14:50:00
9:50 AM,28.4,23.0,80,30.35,10.0,North,16.1,-,N/A,,Clear,360,2014-02-11 15:50:00
10:50 AM,28.4,24.8,86,30.36,10.0,North,16.1,-,N/A,,Clear,360,2014-02-11 16:50:00
11:50 AM,28.4,24.8,86,30.33,10.0,North,11.5,-,N/A,,Clear,350,2014-02-11 17:50:00
12:50 PM,30.2,26.6,86,30.29,5.0,NNW,5.8,-,N/A,,Clear,340,2014-02-11 18:50:00
1:50 PM,32.0,26.6,80,30.29,10.0,NNW,5.8,-,N/A,,Clear,340,2014-02-11 19:50:00
2:50 PM,32.0,26.6,80,30.28,10.0,NW,6.9,-,N/A,,Mostly Cloudy,320,2014-02-11 20:50:00
3:50 PM,32.0,24.8,75,30.26,10.0,NW,4.6,-,N/A,,Overcast,320,2014-02-11 21:50:00
4:50 PM,32.0,24.8,75,30.26,7.0,NNW,6.9,-,N/A,,Overcast,340,2014-02-11 22:50:00
5:50 PM,32.0,24.8,75,30.26,7.0,North,4.6,-,N/A,,Overcast,360,2014-02-11 23:50:00
8:15 PM,32.0,28.4,87,30.30,10.0,North,8.1,-,N/A,,Overcast,350,2014-02-12 02:15:00
8:35 PM,32.0,28.4,87,30.30,10.0,North,8.1,-,N/A,,Overcast,350,2014-02-12 02:35:00
8:55 PM,32.0,28.4,87,30.29,10.0,North,5.8,-,N/A,,Overcast,360,2014-02-12 02:55:00
9:15 PM,32.0,28.4,87,30.28,10.0,North,10.4,-,N/A,,Overcast,10,2014-02-12 03:15:00
9:35 PM,32.0,26.6,80,30.27,10.0,North,8.1,-,N/A,,Mostly Cloudy,10,2014-02-12 03:35:00
9:55 PM,32.0,26.6,80,30.26,10.0,NNE,6.9,-,N/A,,Scattered Clouds,30,2014-02-12 03:55:00
10:15 PM,32.0,26.6,80,30.26,10.0,NNE,5.8,-,N/A,,Scattered Clouds,20,2014-02-12 04:15:00
10:35 PM,32.0,26.6,80,30.26,10.0,North,10.4,-,N/A,,Mostly Cloudy,10,2014-02-12 04:35:00
10:55 PM,32.0,26.6,80,30.26,10.0,NNE,8.1,-,N/A,,Overcast,20,2014-02-12 04:55:00
11:15 PM,32.0,26.6,80,30.26,10.0,North,8.1,-,N/A,,Overcast,360,2014-02-12 05:15:00
11:35 PM,32.0,24.8,75,30.26,10.0,North,5.8,-,N/A,,Overcast,360,2014-02-12 05:35:00
11:55 PM,32.0,24.8,75,30.27,10.0,NNW,6.9,-,N/A,,Overcast,340,2014-02-12 05:55:00